• In Belarus
  • List of Countries
  • For 7 days
  • Water Temperature
  • Satellite Maps
  • Weather Map
  • Weather Widgets
  • user-avatar
    Login

    Hourly Weather Dawei

    Today, 13 November, Tuesday

    Time Temperature Precipitation Wind Pressure Humidity
    00:00 +26°C° 0 mm 1 mps 755 mmHg 95%
    01:00 +26°C° 0 mm 1 mps 755 mmHg 95%
    02:00 +26°C° 0 mm 1 mps 755 mmHg 95%
    03:00 +26°C° 0 mm 1 mps 754 mmHg 95%
    04:00 +26°C° 0 mm 1 mps 754 mmHg 95%
    05:00 +26°C° 0 mm 1 mps 754 mmHg 95%
    06:00 +26°C° 0 mm 1 mps 754 mmHg 95%
    07:00 +26°C° 0 mm 1 mps 754 mmHg 94%
    08:00 +28°C° 0 mm 1 mps 755 mmHg 84%
    09:00 +31°C° 0 mm 1 mps 755 mmHg 73%
    10:00 +33°C° 0 mm 1 mps 755 mmHg 63%
    11:00 +34°C° 0 mm 1 mps 754 mmHg 60%
    12:00 +35°C° 0 mm 1 mps 754 mmHg 56%
    13:00 +36°C° 0 mm 1 mps 753 mmHg 53%
    14:00 +34°C° 0.3 mm 1 mps 753 mmHg 62%
    15:00 +33°C° 0.3 mm 1 mps 752 mmHg 70%
    16:00 +32°C° 0.3 mm 2 mps 752 mmHg 79%
    17:00 +30°C° 0.6 mm 1 mps 752 mmHg 84%
    18:00 +29°C° 0.6 mm 1 mps 752 mmHg 89%
    19:00 +27°C° 0.6 mm 1 mps 753 mmHg 95%
    20:00 +27°C° 0 mm 1 mps 753 mmHg 95%
    21:00 +27°C° 0 mm 1 mps 754 mmHg 96%
    22:00 +27°C° 0 mm 1 mps 755 mmHg 96%
    23:00 +27°C° 0 mm 1 mps 755 mmHg 96%

    Tomorrow, 14 November, Wednesday

    Time Temperature Precipitation Wind Pressure Humidity
    00:00 +26°C° 0 mm 1 mps 755 mmHg 96%
    01:00 +26°C° 0 mm 1 mps 754 mmHg 96%
    02:00 +26°C° 0.1 mm 1 mps 754 mmHg 96%
    03:00 +26°C° 0.1 mm 1 mps 754 mmHg 97%
    04:00 +26°C° 0.1 mm 1 mps 753 mmHg 97%
    05:00 +26°C° 0.1 mm 1 mps 753 mmHg 96%
    06:00 +26°C° 0.1 mm 1 mps 754 mmHg 96%
    07:00 +26°C° 0.1 mm 1 mps 754 mmHg 96%
    08:00 +29°C° 0 mm 1 mps 755 mmHg 84%
    09:00 +31°C° 0 mm 1 mps 755 mmHg 71%
    10:00 +34°C° 0 mm 1 mps 756 mmHg 59%
    11:00 +35°C° 0 mm 1 mps 755 mmHg 56%
    12:00 +36°C° 0 mm 1 mps 754 mmHg 53%
    13:00 +36°C° 0 mm 1 mps 754 mmHg 50%
    14:00 +36°C° 0.1 mm 2 mps 753 mmHg 58%
    15:00 +35°C° 0.1 mm 2 mps 753 mmHg 66%
    16:00 +32°C° 0.1 mm 2 mps 752 mmHg 74%
    17:00 +31°C° 1 mm 1 mps 753 mmHg 80%
    18:00 +29°C° 1 mm 1 mps 753 mmHg 87%
    19:00 +28°C° 1 mm 1 mps 754 mmHg 94%
    20:00 +27°C° 0.6 mm 1 mps 754 mmHg 95%
    21:00 +27°C° 0.6 mm 1 mps 755 mmHg 95%
    22:00 +27°C° 0.6 mm 1 mps 756 mmHg 96%
    23:00 +27°C° 0 mm 1 mps 756 mmHg 96%

    Day after tomorrow, 15 November, Thursday

    Time Temperature Precipitation Wind Pressure Humidity
    00:00 +27°C° 0 mm 1 mps 755 mmHg 96%
    01:00 +26°C° 0 mm 1 mps 755 mmHg 96%
    02:00 +26°C° 0 mm 1 mps 755 mmHg 97%
    03:00 +26°C° 0 mm 1 mps 755 mmHg 97%
    04:00 +26°C° 0 mm 1 mps 754 mmHg 97%
    05:00 +26°C° 0 mm 1 mps 755 mmHg 97%
    06:00 +26°C° 0 mm 1 mps 755 mmHg 96%
    07:00 +26°C° 0 mm 1 mps 755 mmHg 96%
    08:00 +29°C° 0 mm 1 mps 756 mmHg 85%
    09:00 +31°C° 0 mm 1 mps 756 mmHg 74%
    10:00 +34°C° 0 mm 1 mps 757 mmHg 63%
    11:00 +34°C° 0.1 mm 1 mps 756 mmHg 61%
    12:00 +35°C° 0.1 mm 1 mps 756 mmHg 58%
    13:00 +35°C° 0.1 mm 1 mps 755 mmHg 56%
    14:00 +35°C° 0.6 mm 2 mps 754 mmHg 64%
    15:00 +34°C° 0.6 mm 2 mps 754 mmHg 71%
    16:00 +32°C° 0.6 mm 2 mps 753 mmHg 79%
    17:00 +31°C° 0.9 mm 2 mps 754 mmHg 84%
    18:00 +29°C° 0.9 mm 1 mps 754 mmHg 89%
    19:00 +28°C° 0.9 mm 1 mps 755 mmHg 93%
    20:00 +28°C° 0.2 mm 1 mps 756 mmHg 94%
    21:00 +27°C° 0.2 mm 1 mps 756 mmHg 94%
    22:00 +27°C° 0.2 mm 1 mps 757 mmHg 94%
    23:00 +27°C° 0 mm 1 mps 757 mmHg 95%

    16 November, Friday

    Time Temperature Precipitation Wind Pressure Humidity
    00:00 +27°C° 0 mm 1 mps 756 mmHg 95%
    01:00 +26°C° 0 mm 1 mps 756 mmHg 95%
    02:00 +26°C° 0 mm 1 mps 756 mmHg 95%
    03:00 +26°C° 0 mm 1 mps 755 mmHg 95%
    04:00 +26°C° 0 mm 1 mps 755 mmHg 95%
    05:00 +26°C° 0 mm 1 mps 755 mmHg 95%
    06:00 +26°C° 0 mm 1 mps 756 mmHg 95%
    07:00 +26°C° 0 mm 1 mps 756 mmHg 95%
    08:00 +29°C° 0 mm 1 mps 756 mmHg 83%
    09:00 +30°C° 0 mm 0 mps 757 mmHg 72%
    10:00 +33°C° 0 mm 0 mps 757 mmHg 60%
    11:00 +35°C° 0 mm 1 mps 756 mmHg 56%
    12:00 +36°C° 0 mm 1 mps 756 mmHg 53%
    13:00 +38°C° 0 mm 2 mps 755 mmHg 49%
    14:00 +37°C° 0 mm 2 mps 754 mmHg 56%
    15:00 +35°C° 0 mm 2 mps 754 mmHg 62%
    16:00 +34°C° 0 mm 2 mps 753 mmHg 69%
    17:00 +31°C° 0.1 mm 2 mps 754 mmHg 77%
    18:00 +30°C° 0.1 mm 2 mps 754 mmHg 85%
    19:00 +28°C° 0.1 mm 1 mps 755 mmHg 94%
    20:00 +28°C° 0 mm 1 mps 755 mmHg 94%
    21:00 +27°C° 0 mm 1 mps 756 mmHg 95%
    22:00 +27°C° 0 mm 1 mps 756 mmHg 96%
    23:00 +27°C° 0 mm 1 mps 756 mmHg 96%

    17 November, Saturday

    Time Temperature Precipitation Wind Pressure Humidity
    00:00 +27°C° 0 mm 1 mps 756 mmHg 96%
    01:00 +27°C° 0 mm 1 mps 755 mmHg 96%
    02:00 +26°C° 0 mm 1 mps 755 mmHg 96%
    03:00 +26°C° 0 mm 1 mps 755 mmHg 96%
    04:00 +26°C° 0 mm 1 mps 754 mmHg 96%
    05:00 +26°C° 0 mm 1 mps 755 mmHg 95%
    06:00 +26°C° 0 mm 1 mps 755 mmHg 95%
    07:00 +26°C° 0 mm 1 mps 756 mmHg 94%
    08:00 +27°C° 0 mm 0 mps 756 mmHg 83%
    09:00 +30°C° 0 mm 0 mps 757 mmHg 71%
    10:00 +33°C° 0 mm 0 mps 757 mmHg 59%
    11:00 +35°C° 0.2 mm 1 mps 756 mmHg 60%
    12:00 +35°C° 0.2 mm 1 mps 756 mmHg 61%
    13:00 +36°C° 0.2 mm 2 mps 755 mmHg 63%
    14:00 +35°C° 0.5 mm 2 mps 754 mmHg 70%
    15:00 +32°C° 0.5 mm 2 mps 754 mmHg 77%
    16:00 +31°C° 0.5 mm 2 mps 753 mmHg 84%
    17:00 +30°C° 0.4 mm 2 mps 754 mmHg 87%
    18:00 +29°C° 0.4 mm 2 mps 754 mmHg 91%
    19:00 +28°C° 0.4 mm 1 mps 755 mmHg 94%
    20:00 +27°C° 0.1 mm 1 mps 755 mmHg 95%
    21:00 +27°C° 0.1 mm 1 mps 756 mmHg 95%
    22:00 +27°C° 0.1 mm 1 mps 756 mmHg 96%
    23:00 +27°C° 0.1 mm 1 mps 756 mmHg 96%

    18 November, Sunday

    Time Temperature Precipitation Wind Pressure Humidity
    00:00 +26°C° 0.1 mm 1 mps 756 mmHg 96%
    01:00 +26°C° 0.1 mm 1 mps 756 mmHg 96%
    02:00 +26°C° 0.1 mm 1 mps 755 mmHg 96%
    03:00 +26°C° 0.1 mm 1 mps 755 mmHg 96%
    04:00 +26°C° 0.1 mm 1 mps 755 mmHg 96%
    05:00 +26°C° 0 mm 1 mps 755 mmHg 96%
    06:00 +26°C° 0 mm 1 mps 756 mmHg 96%
    07:00 +26°C° 0 mm 1 mps 756 mmHg 95%
    08:00 +29°C° 0 mm 1 mps 756 mmHg 84%
    09:00 +31°C° 0 mm 1 mps 757 mmHg 73%
    10:00 +34°C° 0 mm 1 mps 757 mmHg 61%
    11:00 +35°C° 0 mm 1 mps 756 mmHg 56%
    12:00 +36°C° 0 mm 1 mps 756 mmHg 51%
    13:00 +38°C° 0 mm 2 mps 755 mmHg 47%
    14:00 +37°C° 0.2 mm 2 mps 754 mmHg 54%
    15:00 +35°C° 0.2 mm 2 mps 754 mmHg 61%
    16:00 +34°C° 0.2 mm 2 mps 753 mmHg 69%
    17:00 +31°C° 0.7 mm 2 mps 754 mmHg 76%
    18:00 +30°C° 0.7 mm 2 mps 755 mmHg 84%
    19:00 +28°C° 0.7 mm 1 mps 755 mmHg 92%
    20:00 +28°C° 0.1 mm 1 mps 756 mmHg 93%
    21:00 +27°C° 0.1 mm 1 mps 756 mmHg 93%
    22:00 +27°C° 0.1 mm 1 mps 757 mmHg 94%
    23:00 +27°C° 0 mm 1 mps 756 mmHg 94%
    Show more